| time (UTC) | temp F | wind direction | speed knots | gust knots | rain 1hr in | rain 24hr in | rain mn in | humidity % | barometer mb |
| 20260903204530 | 0 | 254 | 0.0 | 0.0 | 0.00 | 0.00 | 0.00 | 1019.6 | |
| 20260903203029 | 0 | 254 | 0.0 | 0.0 | 0.00 | 0.00 | 0.00 | 1019.2 | |
| 20260903201522 | 0 | 254 | 1.7 | 3.5 | 0.00 | 0.00 | 0.00 | 1018.9 | |
| 20260903200021 | 0 | 254 | 0.0 | 3.5 | 0.00 | 0.00 | 0.00 | 1018.7 | |
| 20260903194521 | 0 | 320 | 0.0 | 4.3 | 0.00 | 0.00 | 0.00 | 1018.6 | |
| 20260903193020 | 0 | 268 | 2.6 | 5.2 | 0.00 | 0.00 | 0.00 | 1018.7 | |
| 20260903191525 | 0 | 341 | 2.6 | 7.0 | 0.00 | 0.00 | 0.00 | 1018.5 | |
| 20260903190016 | 0 | 41 | 2.6 | 4.3 | 0.00 | 0.00 | 0.00 | 1018.3 | |
| 20260903184516 | 0 | 19 | 0.0 | 8.7 | 0.00 | 0.00 | 0.00 | 1018.3 | |
| 20260903183016 | 0 | 322 | 0.0 | 7.8 | 0.00 | 0.00 | 0.00 | 1018.3 | |
| 20260903181512 | 0 | 331 | 4.3 | 7.8 | 0.00 | 0.00 | 0.00 | 1018.3 | |
| 20260903180015 | 0 | 16 | 5.2 | 11.3 | 0.00 | 0.00 | 0.00 | 1018.3 | |
| 20260903174504 | 0 | 357 | 5.2 | 11.3 | 0.00 | 0.00 | 0.00 | 1018.1 | |
| 20260903173105 | 0 | 30 | 2.6 | 9.6 | 0.00 | 0.00 | 0.00 | 1018.2 | |
| 20260903171601 | 0 | 41 | 6.1 | 10.4 | 0.00 | 0.00 | 0.00 | 1018.3 | |
| 20260903170050 | 0 | 28 | 0.0 | 7.8 | 0.00 | 0.00 | 0.00 | 1018.3 | |
| 20260903164548 | 0 | 58 | 5.2 | 9.6 | 0.00 | 0.00 | 0.00 | 1018.1 | |
| 20260903163043 | 0 | 63 | 6.1 | 11.3 | 0.00 | 0.00 | 0.00 | 1018.2 | |
| 20260903161537 | 0 | 21 | 7.8 | 13.0 | 0.00 | 0.00 | 0.00 | 1018.3 | |
| 20260903160033 | 0 | 359 | 7.0 | 14.8 | 0.00 | 0.00 | 0.00 | 1018.5 | |
| 20260903154529 | 0 | 41 | 4.3 | 13.0 | 0.00 | 0.00 | 0.00 | 1018.7 | |
| 20260903153024 | 0 | 54 | 7.0 | 12.2 | 0.00 | 0.00 | 0.00 | 1018.7 | |
| 20260903151521 | 0 | 66 | 5.2 | 13.0 | 0.00 | 0.00 | 0.00 | 1018.8 | |
| 20260903150016 | 0 | 41 | 6.1 | 11.3 | 0.00 | 0.00 | 0.00 | 1018.5 | |
| 20260903144511 | 0 | 41 | 5.2 | 13.0 | 0.00 | 0.00 | 0.00 | 1018.2 | |
| 20260903143006 | 0 | 32 | 8.7 | 12.2 | 0.00 | 0.00 | 0.00 | 1018.1 | |
| 20260903141501 | 0 | 52 | 5.2 | 12.2 | 0.00 | 0.00 | 0.00 | 1018.3 | |
| 20260903140058 | 0 | 46 | 5.2 | 12.2 | 0.00 | 0.00 | 0.00 | 1017.9 | |
| 20260903134601 | 0 | 26 | 8.7 | 13.9 | 0.00 | 0.00 | 0.00 | 1017.8 | |
| 20260903133104 | 0 | 36 | 9.6 | 13.9 | 0.00 | 0.00 | 0.00 | 1018.1 | |
| 20260903131544 | 0 | 60 | 7.8 | 12.2 | 0.00 | 0.00 | 0.00 | 1017.9 | |
| 20260903130055 | 0 | 46 | 7.8 | 13.9 | 0.00 | 0.00 | 0.00 | 1018.1 | |
| 20260903124550 | 0 | 25 | 10.4 | 15.6 | 0.00 | 0.00 | 0.00 | 1018.3 | |
| 20260903123032 | 0 | 36 | 5.2 | 12.2 | 0.00 | 0.00 | 0.00 | 1018.5 | |
| 20260903121532 | 0 | 60 | 5.2 | 9.6 | 0.00 | 0.00 | 0.00 | 1018.5 | |
| 20260903120022 | 0 | 10 | 4.3 | 11.3 | 0.00 | 0.00 | 0.00 | 1018.6 | |
| 20260903114518 | 0 | 27 | 1.7 | 11.3 | 0.00 | 0.00 | 0.00 | 1018.6 | |
| 20260903113013 | 0 | 36 | 4.3 | 10.4 | 0.00 | 0.00 | 0.00 | 1018.8 | |
| 20260903111508 | 0 | 46 | 7.0 | 10.4 | 0.00 | 0.00 | 0.00 | 1018.9 | |
| 20260903110004 | 0 | 46 | 5.2 | 10.4 | 0.00 | 0.00 | 0.00 | 1018.7 | |
| 20260903104604 | 0 | 41 | 3.5 | 7.8 | 0.00 | 0.00 | 0.00 | 1018.5 | |
| 20260903103056 | 0 | 185 | 0.0 | 0.0 | 0.00 | 0.00 | 0.00 | 1018.4 | |
| 20260903101554 | 0 | 185 | 0.0 | 0.0 | 0.00 | 0.00 | 0.00 | 1018.2 | |
| 20260903100049 | 0 | 185 | 0.0 | 0.0 | 0.00 | 0.00 | 0.00 | 1018.3 | |
| 20260903094550 | 0 | 185 | 0.0 | 0.0 | 0.00 | 0.00 | 0.00 | 1018.1 | |
| 20260903093038 | 0 | 185 | 0.0 | 0.0 | 0.00 | 0.00 | 0.00 | 1017.9 | |
| 20260903091535 | 0 | 185 | 0.0 | 0.0 | 0.00 | 0.00 | 0.00 | 1017.9 | |
| 20260903090037 | 0 | 185 | 0.0 | 0.0 | 0.00 | 0.00 | 0.00 | 1017.8 | |
| 20260903084531 | 0 | 185 | 0.0 | 0.0 | 0.00 | 0.00 | 0.00 | 1017.3 | |
| 20260903083022 | 0 | 185 | 0.0 | 0.0 | 0.00 | 0.00 | 0.00 | 1017.5 | |
| 20260903081518 | 0 | 185 | 0.0 | 0.0 | 0.00 | 0.00 | 0.00 | 1017.6 | |
| 20260903080012 | 0 | 185 | 0.0 | 0.0 | 0.00 | 0.00 | 0.00 | 1017.6 | |
| 20260903074507 | 0 | 185 | 0.0 | 0.0 | 0.00 | 0.00 | 0.00 | 1017.6 | |
| 20260903073005 | 0 | 185 | 0.0 | 0.0 | 0.00 | 0.00 | 0.00 | 1017.6 | |
| 20260903071620 | 0 | 185 | 0.0 | 2.6 | 0.00 | 0.00 | 0.00 | 1017.4 | |
| 20260903070055 | 0 | 183 | 0.0 | 4.3 | 0.00 | 0.00 | 0.00 | 1017.5 | |
| 20260903064550 | 0 | 196 | 2.6 | 5.2 | 0.00 | 0.00 | 0.00 | 1017.6 | |
| 20260903063049 | 0 | 195 | 3.5 | 5.2 | 0.00 | 0.00 | 0.00 | 1017.6 | |
| 20260903061542 | 0 | 183 | 0.0 | 0.0 | 0.00 | 0.00 | 0.00 | 1017.6 | |
| 20260903060108 | 0 | 107 | 0.0 | 0.0 | 0.00 | 0.00 | 0.00 | 1017.7 | |
| 20260903054535 | 0 | 107 | 0.0 | 0.9 | 0.00 | 0.00 | 0.00 | 1017.4 | |
| 20260903053029 | 0 | 94 | 0.0 | 0.0 | 0.00 | 0.00 | 0.00 | 1017.4 | |
| 20260903051524 | 0 | 94 | 0.9 | 3.5 | 0.00 | 0.00 | 0.00 | 1017.5 | |
| 20260903050020 | 0 | 200 | 0.0 | 1.7 | 0.00 | 0.00 | 0.00 | 1017.6 | |
| 20260903044515 | 0 | 200 | 0.9 | 6.1 | 0.00 | 0.00 | 0.00 | 1017.5 | |
| 20260903043022 | 0 | 232 | 2.6 | 6.1 | 0.00 | 0.00 | 0.00 | 1017.6 | |
| 20260903041507 | 0 | 212 | 5.2 | 11.3 | 0.00 | 0.00 | 0.00 | 1017.3 | |
| 20260903040003 | 0 | 191 | 8.7 | 12.2 | 0.00 | 0.00 | 0.00 | 1017.1 | |
| 20260903034558 | 0 | 222 | 7.0 | 10.4 | 0.00 | 0.00 | 0.00 | 1017.4 | |
| 20260903033051 | 0 | 225 | 2.6 | 5.2 | 0.00 | 0.00 | 0.00 | 1017.1 | |
| 20260903031547 | 0 | 252 | 3.5 | 6.1 | 0.00 | 0.00 | 0.00 | 1017.1 | |
| 20260903030043 | 0 | 215 | 4.3 | 7.8 | 0.00 | 0.00 | 0.00 | 1017.1 | |
| 20260903024529 | 0 | 210 | 6.1 | 8.7 | 0.00 | 0.00 | 0.00 | 1017.1 | |
| 20260903023042 | 0 | 219 | 4.3 | 5.2 | 0.00 | 0.00 | 0.00 | 1017.1 | |
| 20260903021521 | 0 | 231 | 0.0 | 0.0 | 0.00 | 0.00 | 0.00 | 1016.9 | |
| 20260903020015 | 0 | 231 | 0.0 | 0.0 | 0.00 | 0.00 | 0.00 | 1017.0 | |
| 20260903014510 | 0 | 231 | 0.0 | 5.2 | 0.00 | 0.00 | 0.00 | 1017.1 | |
| 20260903013006 | 0 | 232 | 2.6 | 5.2 | 0.00 | 0.00 | 0.00 | 1017.3 | |
| 20260903011501 | 0 | 238 | 2.6 | 4.3 | 0.00 | 0.00 | 0.00 | 1017.3 | |
| 20260903010057 | 0 | 237 | 1.7 | 5.2 | 0.00 | 0.00 | 0.00 | 1017.5 | |
| 20260903004554 | 0 | 223 | 3.5 | 7.0 | 0.00 | 0.00 | 0.00 | 1017.6 | |
| 20260903003048 | 0 | 235 | 2.6 | 4.3 | 0.00 | 0.00 | 0.00 | 1017.8 | |
| 20260903001549 | 0 | 236 | 3.5 | 6.1 | 0.00 | 0.00 | 0.00 | 1017.6 | |
| 20260903000040 | 0 | 246 | 3.5 | 5.2 | 0.00 | 0.00 | 0.00 | 1017.5 | |
| 20260902234550 | 0 | 241 | 2.6 | 4.3 | 0.00 | 0.00 | 0.00 | 1017.4 | |
| 20260902233032 | 0 | 241 | 0.0 | 0.0 | 0.00 | 0.00 | 0.00 | 1017.4 | |
| 20260902231612 | 0 | 241 | 0.0 | 3.5 | 0.00 | 0.00 | 0.00 | 1017.4 | |
| 20260902230108 | 0 | 241 | 1.7 | 4.3 | 0.00 | 0.00 | 0.00 | 1017.4 | |
| 20260902224554 | 0 | 266 | 0.9 | 4.3 | 0.00 | 0.00 | 0.00 | 1017.3 | |
| 20260902223054 | 0 | 36 | 0.0 | 0.0 | 0.00 | 0.00 | 0.00 | 1017.2 | |
| 20260902221553 | 0 | 53 | 0.0 | 5.2 | 0.00 | 0.00 | 0.00 | 1017.4 | |
| 20260902220101 | 0 | 65 | 2.6 | 7.8 | 0.00 | 0.00 | 0.00 | 1017.3 | |
| 20260902214552 | 0 | 67 | 0.0 | 3.5 | 0.00 | 0.00 | 0.00 | 1017.4 | |
| 20260902213052 | 0 | 251 | 0.0 | 0.0 | 0.00 | 0.00 | 0.00 | 1017.4 | |
| 20260902211554 | 0 | 269 | 0.0 | 0.0 | 0.00 | 0.00 | 0.00 | 1017.5 | |
| 20260902210055 | 0 | 275 | 1.7 | 4.3 | 0.00 | 0.00 | 0.00 | 1017.4 |